Location: Sternwarte ZA, Rosenfeld-Brittheim
(48.2889°N, 8.6789°E)
Time: 01:16:42
(UTC+02:00)

ISS - Pass Details

Date: 20 July 2018
Orbit: 402 x 408 km, 51.6° (Epoch: 18 July)

Event Time Altitude Azimuth Distance (km) Brightness Sun altitude
Rises 22:08:29 0° 209° (SSW) 2,308 -0.1 -7.6°
Reaches altitude 10° 22:10:50 10° 194° (SSW) 1,454 -1.3 -7.9°
Maximum altitude 22:13:26 22° 141° (SE) 939 -2.6 -8.2°
Drops below altitude 10° 22:16:03 10° 88° (E) 1,464 -1.4 -8.5°
Sets 22:18:25 0° 73° (ENE) 2,329 -0.3 -8.8°
